User: anonymous   Login
Location: Gleizolles
(44.4833°N, 6.7667°E)
Time: 09:36:06
(UTC+00:00)
Language:

M-CUBED/EXP-1 PRIME - Orbit

View from above orbital plane
View from above orbital plane
View from above satellite
View from above satellite

Ground track
Ground track

The orbit data is extracted from the following two-line orbital elements,

1 37855U 11061F   22329.83536831  .00012399  00000-0  50213-3 0  9990
2 37855 101.7151 174.9989 0143891 297.7485  60.9202 15.15916373605653
Epoch (UTC): 25 November 2022 20:02:55
Eccentricity: 0.0143891
inclination: 101.7151°
perigee height: 419 km
apogee height: 617 km
right ascension of ascending node: 174.9989°
argument of perigee: 297.7485°
revolutions per day: 15.15916373
mean anomaly at epoch: 60.9202°
orbit number at epoch: 60565

The dashed part of the orbit path shows where the satellite is in the earth's shadow,  

DLR